Tracking 23885 objects as of 28-Nov-2021
HD Live streaming from Space Station
objects crossing your sky now

SPACEBEE-44

Track SPACEBEE-44 now!
10-day predictions


NORAD ID: 47466
Int'l Code: 2021-006BF
Perigee: 528.0 km
Apogee: 535.4 km
Inclination: 97.5 °
Period: 95.1 minutes
Semi major axis: 6902 km
RCS: Unknown
Launch date: January 24, 2021
Source: United States (US)
Launch site: ()
aabbcc
Your satellite tracking list
Your tracking list is empty




NASA's NSSDC Master Catalog

Two Line Element Set (TLE):
1 47466U 21006BF  21331.64019084  .00005891  00000-0  32965-3 0  9999
2 47466  97.4705  29.5170 0005324 263.2252  96.8373 15.13817947 46711
Source of the keplerian elements: AFSPC